Regional Weather Roundup
Issued by NWS

Home | Current Version | Previous Version | Text Only | Print | Product List | Glossary On
Versions: 1 2 3 4 5 6 7 8 9 10 11 12 13 14 15 16 17 18 19 20 21 22 23 24 25 26 27 28 29 30 31 32 33 34 35 36 37 38 39 40 41 42 43 44 45 46 47 48 49 50
000
ASUS43 KDMX 191706
RWRIA

WEATHER ROUNDUP FOR IOWA
NATIONAL WEATHER SERVICE DES MOINES IA
1100 AM CST FRI JAN 19 2018

NOTE: "FAIR" INDICATES FEW OR NO CLOUDS BELOW 12,000 FEET WITH NO
SIGNIFICANT WEATHER AND/OR OBSTRUCTIONS TO VISIBILITY.

* - THESE STATIONS ARE NOT NWS STATIONS...THUS NOT UNDER NWS
QUALITY CONTROL.  THEY ALSO DO NOT REPORT WEATHER SUCH
AS PRECIPITATION OR FOG.

IAZ001>003-012>014-020>022-031>034-043>046-191800-
   NORTHWEST IOWA

CITY           SKY/WX    TMP DP  RH WIND       PRES   REMARKS
CARROLL *      CLOUDY    39  28  65 SW22G29   29.68F WCI  29
CHEROKEE *     CLOUDY    43  26  52 SW8       29.64R
DENISON *      CLOUDY    37  27  65 SW15G22   29.71S WCI  28
LE MARS *      CLOUDY    39  28  65 S13       29.63R WCI  32
ORANGE CITY *  CLOUDY    43  30  61 SW13      29.61S
SHELDON *      CLOUDY    39  28  65 S14G22    29.58S WCI  31
SIOUX CITY     CLOUDY    40  29  64 SE12      29.65S WCI  33
SPENCER        CLOUDY    43  28  55 SW18G24   29.60S
STORM LAKE *   CLOUDY    41  27  56 SW10G17   29.65R
$$

IAZ055>058-069>071-079>083-090>094-191800-
   SOUTHWEST IOWA

CITY           SKY/WX    TMP DP  RH WIND       PRES   REMARKS
ATLANTIC *     CLOUDY    37  27  65 S17       29.75F WCI  28
AUDUBON *      CLOUDY    37  27  65 SW10G20   29.74S WCI  30
CLARINDA *     CLOUDY    37  27  65 S17         N/A  WCI  28
COUNCIL BLFS * CLOUDY    37  27  65 SW16      29.75R WCI  28
CRESTON *      CLOUDY    37  25  60 SW18      29.79F WCI  27
HARLAN  *      CLOUDY    36  28  75 S12       29.78R WCI  27
LAMONI         CLOUDY    39  23  52 S17G30    29.82F WCI  30
RED OAK *      CLOUDY    37  28  70 S15       29.78F WCI  28
SHENANDOAH *   CLOUDY    39  27  60 S14       29.80F WCI  31
$$

IAZ047>049-059>061-072>074-084-191800-
   CENTRAL IOWA

CITY           SKY/WX    TMP DP  RH WIND       PRES   REMARKS
AMES           CLOUDY    39  29  67 SW10      29.73F WCI  32
ANKENY *       CLOUDY    41  25  52 S13G24    29.75F
BOONE *        CLOUDY    39  27  60 SW15G23   29.70S WCI  31
CHARITON *     CLOUDY    39  25  56 SW17G28   29.80F WCI  30
DES MOINES     CLOUDY    39  25  57 SW16      29.76F WCI  30
GRINNELL*      CLOUDY    37  26  64 SW21G26   29.78S WCI  26
KNOXVILLE *    CLOUDY    41  23  48 SW13G22   29.78F
MARSHALLTOWN   CLOUDY    38  26  62 S16       29.72F WCI  29
NEWTON *       CLOUDY    37  25  60 SW17      29.76F WCI  28
PELLA *        CLOUDY    40  24  53 SW20G26   29.80F WCI  30
PERRY *          N/A     39  28  64 S16       29.73S WCI  30
$$

IAZ004>006-015-016-023>025-035-036-191800-
   NORTH CENTRAL IOWA

CITY           SKY/WX    TMP DP  RH WIND       PRES   REMARKS
ALGONA *       CLOUDY    36 N/A N/A S23       29.61S WCI  24
CLARION *      CLOUDY    37  32  81 S17       29.66F WCI  28
ESTHERVILLE    CLOUDY    37  28  70 SW16G24   29.57F WCI  28
FORT DODGE *   CLOUDY    37  27  67 S17       29.67F WCI  27
MASON CITY     CLOUDY    36  27  69 S9        29.66F WCI  29
FOREST CITY *    N/A     36  28  75 S12       29.63F WCI  27
WEBSTER CITY * CLOUDY    37  28  70 S18       29.66F WCI  27
IOWA FALLS *     N/A     37  29  72 S17       29.70S WCI  28
$$

IAZ007>011-017>019-026>030-037>042-050>054-066-191800-
   NORTHEAST IOWA

CITY           SKY/WX    TMP DP  RH WIND       PRES   REMARKS
CEDAR RAPIDS     N/A     37  25  61 SW15      29.77F WCI  28
CHARLES CITY *   N/A     34  30  86 S13       29.70F WCI  25
CLINTON *        N/A     36  25  64 SW15      29.84F WCI  27
DECORAH *        N/A     36  27  69 S6        29.71S WCI  31
DUBUQUE          N/A     33  23  66 SW16      29.76F WCI  23
MONTICELLO *     N/A     36  25  64 S10       29.78F WCI  28
OELWEIN *        N/A     34  30  86 S15       29.73F WCI  24
WATERLOO         N/A     38  25  59 SW12      29.73S WCI  30
$$

IAZ064-065-067-068-078-191800-
   EAST CENTRAL IOWA

CITY           SKY/WX    TMP DP  RH WIND       PRES   REMARKS
DAVENPORT        N/A     38  23  55 SW16      29.86F WCI  29
IOWA CITY        N/A     39  23  52 S10       29.84F WCI  32
MT. PLEASANT * CLOUDY    37  23  56 SW20G26   29.87F WCI  27
MUSCATINE *      N/A     37  25  60 S16       29.85F WCI  28
QUAD CITIES      N/A     38  23  55 SW14      29.85F WCI  30
$$

IAZ062-063-075>077-085>089-095>099-191800-
   SOUTHEAST IOWA

CITY           SKY/WX    TMP DP  RH WIND       PRES   REMARKS
BURLINGTON     CLOUDY    37  23  56 SW17      29.88F WCI  27
FAIRFIELD *    CLOUDY    39  23  52 SW18G25   29.83F WCI  30
FORT MADISON * CLOUDY    37  23  56 S15       29.89F WCI  28
KEOKUK *       CLOUDY    39  23  52 SW18G26   29.90F WCI  30
OSKALOOSA *      N/A     38  25  58 SW16      29.81F WCI  30
OTTUMWA        CLOUDY    40  23  50 SW18      29.81F WCI  31
WASHINGTON *   CLOUDY    37  25  60 SW18      29.83F WCI  27
$$

ABBREVIATIONS USED IN REMARKS
   TC - TEMPERATURES IN CELSIUS
  WCI - WIND CHILL INDEX
   HX - HEAT INDEX
  VSB - VISIBILITY
$$





USA.gov is the U.S. government's official web portal to all federal, state and local government web resources and services.